[Iaude] MPEC N91: 2024 NV1 [a=1.17,e=0.31,i=6.1,H=25.3]
    mpec at cfa.harvard.edu 
    mpec at cfa.harvard.edu
       
    Mon Jul  8 04:58:08 EDT 2024
    
    
  
M.P.E.C. 2024-N91                                  Issued 2024 July 8, 08:56 UT
     The Minor Planet Electronic Circulars contain information on unusual
         minor planets, routine data on comets and natural satellites,
         and occasional editorial announcements.  They are published
    on behalf of Division F of the International Astronomical Union by the
          Minor Planet Center, Smithsonian Astrophysical Observatory,
                          Cambridge, MA 02138, U.S.A.
			  
             Prepared using the Tamkin Foundation Computer Network
                              MPC at CFA.HARVARD.EDU
            URL https://www.minorplanetcenter.net/    ISSN 1523-6714
                                    2024 NV1                                    
Observations:
     K24N01V* C2024 07 06.52667121 15 19.190-21 39 52.71         21.99wXEN091F51
     K24N01V  C2024 07 06.53658221 15 20.350-21 39 26.62         22.28wXEN091F51
     K24N01V  C2024 07 06.55784521 15 22.804-21 38 29.43         22.13wXEN091F51
     K24N01V  C2024 07 06.56774921 15 23.965-21 38 02.95         21.95wXEN091F51
     K24N01V 3C2024 07 07.57307521 17 55.480-20 51 11.57         22.05GVEN091T14
     K24N01V 3C2024 07 07.57405321 17 55.601-20 51 08.63         21.92GVEN091T14
     K24N01V 3C2024 07 07.57518721 17 55.738-20 51 05.25         21.73GVEN091T14
     K24N01V 3C2024 07 07.57616321 17 55.866-20 51 02.23         22.08GVEN091T14
     K24N01V KC2024 07 08.33749 21 20 01.07 -20 12 21.3          22.0 RVEN091291
     K24N01V KC2024 07 08.34547 21 20 02.12 -20 11 55.9          21.7 RVEN091291
     K24N01V KC2024 07 08.35350 21 20 03.19 -20 11 30.9                VEN091291
Observer details:
291 LPL/Spacewatch II.  Observer T. H. Bressi.  1.8-m f/2.7 reflector + CCD.
F51 Pan-STARRS 1, Haleakala.  Observers J. Herman, T. Lowe, P. Minguez, A.
    Schultz, I. Smith.  Measurers K. Chambers, T. de Boer, J. Fairlamb, H.
    Gao, M. Huber, C.-C. Lin, E. Magnier, Y. Ramanjooloo, R. Wainscoat, R.
    Weryk.  1.8-m Ritchey-Chretien + CCD.
T14 Canada-France-Hawaii Telescope, Maunakea.  Observers R. Wainscoat, H.
    Januszewski, H. Flewelling.  Measurers R. Weryk, R. Wainscoat.  3.6-m
    f/4.1 reflector + CCD.
Orbital elements:
2024 NV1                                                 Earth MOID = 0.0136 AU
Epoch 2024 Mar. 31.0 TT = JDT 2460400.5                 MPC                     
M 219.26319              (2000.0)            P               Q                  
n   0.77838120     Peri.   95.58328     +0.87082676     -0.48194269             
a   1.1704184      Node   293.26169     +0.39885791     +0.80792759             
e   0.3138444      Incl.    6.05524     +0.28735539     +0.33909329             
P   1.27           H   25.35          G   0.15           U   8                  
Residuals in seconds of arc
240706 F51  0.1-  0.0     240707 T14  0.1+  0.1-    240708 291  0.4+  0.2-
240706 F51  0.1+  0.2-    240707 T14  0.0   0.1-    240708 291  0.1-  0.3+
240706 F51  0.1-  0.2+    240707 T14  0.0   0.1-    240708 291  0.4-  0.0
240706 F51  0.0   0.1+    240707 T14  0.1+  0.0
Ephemeris:
2024 NV1                 a,e,i = 1.17, 0.31, 6                   q = 0.8031
Date    TT    R. A. (2000) Decl.     Delta      r    Elong.  Phase     V
2024 06 08    20 26 38.1 -29 54 59   0.3217  1.2620   134.7    34.9    24.8
...
2024 06 23    20 49 46.1 -27 29 36   0.2104  1.1916   143.3    30.7    23.7
...
2024 07 01    21 03 32.2 -24 49 31   0.1567  1.1517   147.4    28.4    22.9
...
2024 07 07    21 16 29.2 -21 17 44   0.1190  1.1210   149.6    27.3    22.2
2024 07 08    21 19 04.3 -20 29 01   0.1130  1.1159   149.8    27.3    22.1
2024 07 09    21 21 50.2 -19 34 53   0.1071  1.1107   150.0    27.3    21.9
...
2024 07 15    21 44 21.6 -11 12 05   0.07333 1.0794   148.0    29.9    21.1
...
2024 07 23    23 00 08.9 +20 31 31   0.03957 1.0373   121.9    56.3    20.5
...
2024 08 07    06 48 58.9 +53 41 39   0.08066 0.9600    46.1   130.5    25.6
A. U. Tomatic                (C) Copyright 2024 MPC           M.P.E.C. 2024-N91
    
    
More information about the Iaude
mailing list